sat.trackr.live / text

‹ back to catalog

STARLINK-30433

NORAD 57878 · 2023-144Q

PAYLOAD ACTIVE UNKNOWN

§ Identity

Operator
Country
US
Launch date
2023-09-16
Launch site
AFETR
Launch vehicle
Mass (kg)
RCS (m²)

Purposes: comms

External: N2YO · Heavens-Above · Gunter

§ Orbital elements

Epoch: 2026-09-20T08:36:48.138336Z

Period
94.27 min
Inclination
43.0018°
Eccentricity
0.0001323
Mean motion
15.27579217 rev/d
Perigee alt
482.1 km
Apogee alt
484.0 km
Semi-major
6,861.2 km
B*
2.8722e-5
RAAN
265.4671°
Arg perigee
275.2032°
Mean anomaly
84.8669°
Rev number
16,741

§ Raw data

STARLINK-304331 57878U 23144Q   26263.35889049  .00000528  00000+0  28722-4 0  99932 57878  43.0018 265.4671 0001323 275.2032  84.8669 15.27579217167410

JSON: /api/v1/satellites/57878 · /tle

For live sub-satellite position, see the globe view (requires WebGL).

§ Visibility from observer

Set your observer location to see the next 7 days of passes ≥ 10°. The values pass through the URL so the page stays shareable.

No JS? Fill the form by hand. The geolocation button needs JavaScript.